Temp
-32 -32 -32 -32 -32 -32 -32 -32 -32 -32 -32 -32 -32 -32 -32 -32 -32 -31 -31 -31 -31 -31 -31 -30 -30 -30 -29 -29 -29 -28 -28 -28 -28 -28 -27 -27 -27 -26 -26 -26 -25 -24 -23 -23 -24 -25 -25 -25 -26 -26 -25 -25 -25 -25 -25 -25 -25 -25 -24 -24 -24 -23 -23
-33 -33 -32 -32 -32 -33 -33 -33 -33 -33 -33 -33 -32 -32 -32 -32 -32 -32 -32 -32 -32 -32 -31 -31 -31 -31 -30 -30 -30 -29 -29 -29 -29 -29 -29 -29 -28 -28 -28 -27 -27 -26 -24 -23 -24 -25 -25 -26 -26 -26 -26 -26 -26 -26 -26 -26 -26 -25 -25 -25 -24 -24 -24
-33 -33 -33 -33 -33 -33 -33 -33 -33 -33 -33 -33 -33 -33 -33 -33 -32 -32 -32 -32 -32 -32 -32 -32 -31 -31 -31 -31 -31 -30 -30 -30 -30 -30 -29 -29 -29 -29 -29 -29 -28 -28 -27 -25 -25 -26 -26 -26 -27 -27 -27 -27 -27 -27 -27 -27 -26 -26 -26 -26 -25 -25 -25
-33 -33 -33 -33 -33 -33 -33 -33 -33 -33 -33 -33 -33 -33 -33 -33 -33 -33 -32 -32 -32 -32 -32 -32 -32 -32 -32 -31 -31 -31 -31 -31 -30 -30 -30 -30 -30 -30 -29 -29 -29 -29 -28 -27 -27 -27 -27 -27 -27 -27 -27 -27 -27 -27 -27 -27 -27 -27 -27 -26 -26 -26 -26
-34 -34 -33 -33 -33 -33 -33 -33 -33 -33 -33 -33 -33 -33 -33 -33 -33 -33 -33 -32 -32 -32 -32 -32 -32 -32 -32 -32 -32 -31 -31 -31 -31 -31 -31 -30 -30 -30 -30 -30 -30 -30 -29 -29 -28 -28 -28 -28 -27 -27 -27 -27 -27 -28 -28 -28 -28 -27 -27 -27 -27 -27 -26
-34 -34 -34 -34 -34 -33 -33 -33 -33 -33 -33 -33 -33 -33 -33 -33 -33 -33 -33 -33 -32 -32 -32 -32 -32 -32 -32 -32 -32 -32 -32 -32 -31 -31 -31 -31 -31 -30 -30 -30 -30 -30 -30 -29 -29 -29 -29 -29 -28 -28 -28 -28 -28 -28 -28 -28 -28 -28 -28 -27 -27 -27 -27
-34 -34 -34 -34 -34 -34 -34 -34 -33 -33 -33 -33 -33 -33 -33 -33 -33 -33 -33 -33 -33 -33 -32 -32 -32 -32 -32 -32 -32 -32 -32 -32 -32 -32 -31 -31 -31 -31 -31 -30 -30 -30 -30 -30 -29 -29 -29 -29 -29 -29 -28 -28 -28 -28 -28 -28 -28 -28 -28 -28 -28 -28 -28
-34 -34 -34 -34 -34 -34 -34 -34 -34 -34 -34 -33 -33 -33 -33 -33 -33 -33 -33 -33 -33 -33 -33 -32 -32 -32 -32 -32 -32 -32 -32 -32 -32 -32 -32 -31 -31 -31 -31 -31 -31 -30 -30 -30 -30 -29 -29 -29 -29 -29 -29 -29 -29 -28 -28 -28 -28 -28 -28 -28 -28 -28 -28
-34 -34 -34 -34 -34 -34 -34 -34 -34 -34 -34 -34 -33 -33 -33 -33 -33 -33 -33 -33 -33 -33 -33 -32 -32 -32 -32 -32 -32 -32 -32 -32 -32 -32 -32 -32 -32 -31 -31 -31 -31 -31 -31 -30 -30 -30 -30 -29 -29 -29 -29 -29 -29 -29 -29 -29 -29 -29 -29 -29 -29 -29 -28
-35 -35 -34 -34 -34 -34 -34 -34 -34 -34 -34 -34 -34 -34 -33 -33 -33 -33 -33 -33 -33 -33 -32 -32 -32 -32 -32 -32 -32 -32 -32 -32 -32 -32 -32 -32 -31 -31 -31 -31 -31 -31 -31 -31 -31 -30 -30 -30 -30 -30 -30 -29 -29 -29 -29 -29 -29 -29 -29 -29 -29 -29 -29
-36 -36 -35 -35 -35 -35 -35 -35 -35 -35 -35 -35 -35 -34 -34 -33 -33 -33 -33 -33 -33 -32 -32 -32 -32 -32 -32 -32 -32 -32 -32 -32 -32 -32 -32 -31 -31 -31 -31 -31 -31 -31 -31 -31 -31 -31 -31 -30 -30 -30 -30 -30 -30 -30 -30 -30 -29 -29 -29 -29 -29 -29 -29
-37 -37 -37 -37 -36 -36 -36 -36 -36 -36 -36 -36 -36 -35 -35 -34 -34 -33 -33 -33 -33 -33 -32 -32 -32 -32 -32 -32 -32 -32 -32 -32 -32 -32 -31 -31 -31 -31 -31 -31 -31 -31 -31 -31 -31 -31 -31 -31 -30 -30 -30 -30 -30 -30 -30 -30 -30 -30 -30 -30 -29 -29 -29
-38 -38 -38 -38 -38 -38 -37 -38 -38 -38 -37 -37 -37 -37 -36 -36 -35 -34 -34 -34 -33 -33 -33 -33 -33 -33 -32 -32 -32 -32 -32 -32 -32 -31 -31 -31 -31 -31 -31 -31 -31 -31 -31 -31 -31 -31 -31 -31 -31 -30 -30 -30 -30 -30 -30 -30 -30 -30 -30 -30 -30 -29 -29
-39 -39 -39 -39 -39 -39 -39 -39 -39 -39 -39 -38 -38 -38 -37 -37 -36 -36 -35 -35 -35 -34 -34 -34 -34 -34 -33 -33 -33 -33 -32 -32 -32 -32 -32 -31 -31 -31 -31 -31 -31 -31 -31 -31 -31 -31 -31 -31 -31 -30 -30 -30 -30 -30 -30 -30 -30 -30 -30 -30 -30 -30 -30
-40 -40 -40 -41 -41 -40 -40 -41 -40 -40 -40 -39 -39 -39 -38 -38 -38 -37 -37 -36 -36 -36 -36 -36 -35 -35 -35 -34 -34 -34 -34 -33 -33 -33 -33 -32 -32 -32 -31 -31 -31 -31 -31 -31 -31 -31 -31 -31 -31 -30 -30 -31 -31 -31 -30 -30 -30 -30 -30 -30 -30 -30 -30
-41 -41 -42 -42 -42 -42 -42 -42 -42 -41 -41 -40 -40 -40 -39 -39 -39 -38 -38 -37 -37 -37 -37 -37 -36 -36 -36 -35 -35 -35 -35 -35 -34 -34 -34 -33 -33 -33 -33 -32 -32 -32 -32 -32 -31 -31 -31 -31 -31 -31 -31 -31 -31 -31 -31 -31 -31 -30 -30 -30 -30 -30 -30
-43 -43 -43 -43 -43 -43 -43 -43 -43 -42 -42 -42 -41 -41 -40 -40 -39 -39 -39 -39 -39 -38 -38 -38 -37 -37 -37 -36 -36 -36 -36 -36 -35 -35 -34 -34 -34 -34 -34 -34 -34 -34 -33 -33 -33 -33 -32 -32 -32 -31 -31 -31 -31 -31 -31 -31 -31 -30 -30 -30 -30 -30 -30
-43 -44 -44 -44 -44 -44 -43 -43 -43 -43 -43 -42 -42 -42 -41 -41 -40 -40 -40 -39 -39 -39 -39 -38 -38 -38 -37 -37 -37 -37 -37 -37 -36 -36 -35 -35 -35 -35 -35 -35 -35 -35 -35 -35 -35 -34 -34 -33 -33 -33 -33 -33 -32 -32 -32 -32 -31 -31 -30 -30 -30 -30 -30
-44 -44 -45 -45 -44 -44 -44 -43 -43 -43 -43 -42 -42 -42 -42 -41 -41 -40 -40 -40 -39 -39 -40 -39 -39 -39 -38 -38 -38 -38 -38 -38 -37 -37 -37 -36 -36 -36 -36 -36 -37 -37 -36 -36 -36 -36 -35 -35 -34 -34 -34 -34 -34 -33 -33 -32 -32 -31 -31 -31 -31 -31 -31
-44 -45 -45 -45 -45 -45 -44 -43 -43 -43 -43 -43 -42 -43 -42 -42 -41 -40 -40 -40 -40 -40 -40 -40 -39 -39 -39 -38 -38 -38 -38 -38 -38 -38 -37 -37 -37 -37 -37 -38 -38 -38 -37 -37 -37 -37 -37 -36 -36 -36 -36 -35 -35 -35 -34 -34 -33 -33 -33 -33 -33 -33 -33
-45 -45 -45 -45 -45 -45 -44 -44 -43 -43 -43 -43 -43 -43 -42 -42 -41 -41 -40 -40 -40 -40 -40 -40 -39 -39 -39 -39 -39 -39 -38 -38 -38 -38 -38 -38 -38 -38 -38 -38 -38 -38 -38 -38 -38 -38 -37 -37 -37 -37 -37 -37 -37 -36 -36 -35 -35 -35 -35 -35 -35 -35 -35
-45 -45 -45 -46 -45 -45 -44 -44 -44 -43 -43 -43 -43 -43 -43 -42 -42 -41 -40 -40 -40 -40 -40 -39 -39 -39 -39 -39 -39 -39 -39 -39 -38 -38 -38 -38 -38 -39 -39 -39 -38 -38 -38 -38 -38 -38 -38 -38 -38 -38 -38 -38 -37 -37 -37 -37 -36 -37 -37 -37 -36 -36 -36
-45 -45 -45 -46 -46 -45 -44 -44 -44 -43 -43 -43 -43 -43 -43 -42 -42 -41 -41 -40 -40 -40 -40 -40 -39 -39 -39 -39 -39 -39 -39 -38 -38 -38 -38 -39 -39 -39 -39 -39 -39 -39 -39 -39 -39 -39 -39 -38 -38 -38 -38 -38 -38 -38 -38 -38 -38 -38 -38 -38 -37 -37 -37
-45 -45 -45 -46 -45 -45 -45 -44 -44 -44 -43 -43 -43 -43 -42 -42 -42 -42 -41 -41 -40 -40 -40 -40 -39 -39 -39 -39 -39 -39 -39 -38 -38 -38 -38 -39 -39 -39 -39 -39 -39 -39 -39 -39 -39 -39 -39 -39 -39 -39 -39 -39 -39 -38 -38 -38 -38 -38 -38 -38 -38 -37 -37
-45 -45 -46 -46 -45 -45 -45 -44 -44 -44 -44 -43 -43 -43 -42 -42 -42 -42 -42 -41 -41 -40 -40 -40 -39 -39 -39 -39 -39 -39 -39 -39 -38 -38 -39 -39 -39 -39 -39 -39 -39 -39 -39 -39 -39 -39 -39 -39 -39 -39 -39 -39 -39 -39 -38 -38 -38 -38 -38 -38 -37 -37 -37
-45 -45 -46 -46 -45 -45 -45 -44 -44 -44 -44 -44 -43 -43 -43 -43 -43 -43 -42 -41 -41 -40 -40 -39 -39 -39 -39 -39 -39 -39 -39 -39 -39 -39 -39 -39 -39 -39 -39 -39 -39 -39 -39 -39 -39 -39 -39 -39 -39 -39 -39 -39 -38 -38 -38 -38 -38 -38 -37 -37 -37 -37 -37
-45 -45 -45 -46 -45 -45 -45 -45 -44 -44 -44 -44 -43 -43 -43 -44 -44 -43 -42 -42 -41 -40 -40 -39 -39 -39 -39 -39 -39 -39 -39 -39 -39 -39 -39 -39 -39 -39 -39 -39 -39 -39 -39 -39 -39 -39 -39 -38 -38 -38 -38 -38 -38 -38 -38 -38 -37 -37 -37 -37 -37 -37 -37
-44 -45 -45 -45 -46 -46 -46 -45 -44 -44 -44 -44 -43 -43 -44 -45 -44 -43 -42 -41 -40 -40 -40 -40 -39 -39 -39 -39 -39 -39 -39 -39 -39 -39 -39 -39 -39 -39 -39 -39 -38 -38 -38 -38 -38 -38 -38 -38 -38 -38 -38 -38 -38 -37 -37 -37 -37 -37 -37 -37 -37 -37 -37
-44 -44 -45 -45 -45 -45 -46 -46 -45 -44 -44 -44 -43 -44 -44 -45 -44 -42 -41 -41 -40 -40 -40 -40 -39 -39 -39 -39 -39 -39 -39 -39 -39 -39 -39 -39 -39 -39 -39 -39 -39 -39 -39 -39 -38 -38 -38 -38 -38 -38 -38 -38 -37 -37 -37 -37 -37 -37 -37 -37 -37 -37 -37
-44 -44 -44 -45 -45 -45 -45 -45 -45 -45 -44 -44 -44 -44 -44 -43 -42 -41 -41 -40 -40 -40 -40 -40 -39 -39 -39 -39 -39 -39 -39 -39 -39 -39 -38 -38 -38 -39 -39 -39 -39 -39 -39 -39 -38 -38 -38 -38 -38 -38 -38 -38 -37 -37 -37 -37 -37 -37 -37 -37 -37 -37 -36
-45 -44 -44 -44 -45 -45 -45 -44 -44 -45 -45 -44 -44 -44 -43 -42 -41 -41 -41 -40 -40 -40 -40 -39 -39 -39 -39 -39 -39 -39 -39 -39 -39 -39 -39 -38 -38 -38 -38 -38 -38 -38 -38 -38 -38 -38 -38 -38 -38 -38 -37 -37 -37 -37 -37 -37 -37 -37 -37 -37 -37 -37 -37
-45 -45 -45 -44 -44 -44 -45 -44 -44 -44 -44 -44 -43 -43 -43 -41 -41 -41 -41 -41 -40 -40 -40 -39 -39 -39 -39 -38 -38 -38 -38 -38 -39 -39 -38 -38 -38 -38 -38 -38 -38 -38 -38 -38 -38 -38 -38 -38 -37 -37 -37 -37 -37 -37 -37 -37 -37 -37 -37 -37 -37 -37 -37
-45 -45 -45 -45 -44 -44 -44 -44 -44 -44 -43 -43 -43 -43 -43 -42 -41 -41 -41 -40 -40 -40 -40 -39 -39 -39 -39 -39 -39 -39 -38 -38 -38 -38 -38 -38 -38 -38 -38 -38 -38 -38 -38 -38 -37 -37 -37 -37 -37 -37 -37 -37 -37 -37 -37 -37 -37 -37 -37 -37 -37 -37 -37
-46 -45 -45 -45 -45 -45 -44 -44 -44 -44 -44 -43 -43 -43 -43 -42 -41 -41 -41 -41 -40 -40 -40 -40 -39 -39 -39 -39 -39 -39 -39 -39 -38 -38 -38 -38 -38 -38 -38 -38 -38 -38 -37 -37 -37 -37 -37 -37 -37 -37 -37 -37 -37 -37 -37 -37 -37 -37 -37 -37 -37 -37 -37
-46 -45 -45 -45 -45 -45 -45 -44 -44 -44 -44 -43 -43 -43 -43 -42 -41 -41 -41 -41 -40 -40 -40 -40 -40 -40 -39 -39 -39 -39 -39 -39 -39 -39 -38 -38 -38 -38 -38 -38 -38 -38 -38 -38 -37 -37 -37 -37 -37 -37 -37 -37 -37 -37 -37 -37 -37 -37 -37 -37 -37 -37 -36
-45 -46 -45 -44 -44 -45 -45 -44 -44 -44 -43 -43 -43 -43 -42 -42 -42 -41 -41 -41 -41 -40 -40 -40 -40 -40 -40 -39 -39 -39 -39 -39 -39 -39 -39 -39 -38 -38 -38 -38 -38 -38 -38 -38 -38 -38 -38 -38 -38 -38 -37 -37 -37 -37 -37 -37 -37 -37 -37 -37 -36 -36 -36
Height
5325 5323 5322 5320 5319 5317 5315 5314 5312 5311 5310 5310 5310 5309 5308 5308 5308 5308 5310 5310 5310 5310 5310 5311 5314 5316 5317 5315 5316 5320 5321 5322 5324 5324 5326 5328 5330 5332 5335 5337 5337 5339 5356 5366 5361 5364 5374 5374 5375 5380 5385 5388 5391 5393 5396 5398 5402 5406 5408 5411 5416 5421 5425
5312 5310 5308 5307 5305 5303 5301 5300 5299 5297 5296 5296 5295 5295 5294 5294 5294 5294 5295 5295 5296 5296 5295 5296 5299 5302 5302 5300 5301 5306 5306 5307 5309 5308 5310 5313 5313 5316 5320 5322 5322 5324 5334 5345 5347 5349 5356 5358 5358 5364 5372 5374 5376 5380 5381 5383 5388 5392 5395 5398 5401 5406 5410
5299 5297 5295 5294 5292 5289 5288 5286 5285 5283 5282 5282 5281 5280 5280 5279 5279 5280 5280 5281 5281 5281 5280 5281 5285 5287 5287 5285 5287 5291 5292 5291 5293 5293 5294 5297 5298 5299 5304 5307 5307 5308 5315 5326 5333 5333 5338 5342 5342 5347 5356 5359 5361 5366 5367 5369 5374 5377 5381 5386 5388 5392 5396
5286 5284 5282 5280 5278 5276 5274 5272 5271 5270 5268 5267 5266 5266 5266 5266 5265 5266 5266 5267 5267 5267 5266 5267 5270 5273 5272 5270 5272 5276 5277 5276 5277 5278 5277 5281 5283 5284 5288 5291 5291 5292 5298 5307 5315 5318 5322 5326 5326 5330 5339 5342 5345 5351 5353 5356 5361 5363 5366 5372 5375 5378 5383
5273 5271 5269 5267 5264 5262 5261 5258 5257 5256 5254 5252 5251 5250 5251 5251 5251 5251 5251 5252 5252 5252 5252 5253 5255 5258 5257 5255 5257 5261 5262 5261 5261 5262 5261 5264 5268 5269 5270 5274 5275 5277 5282 5288 5296 5304 5308 5309 5309 5314 5322 5325 5328 5335 5339 5342 5347 5350 5352 5357 5361 5365 5370
5260 5257 5255 5253 5250 5248 5247 5245 5243 5242 5240 5238 5236 5235 5236 5235 5235 5236 5236 5237 5238 5237 5237 5238 5240 5242 5242 5241 5243 5245 5246 5246 5246 5247 5247 5249 5253 5253 5253 5256 5259 5262 5266 5270 5278 5287 5292 5295 5296 5299 5304 5309 5312 5317 5322 5326 5331 5336 5339 5343 5347 5351 5356
5246 5243 5240 5238 5236 5233 5232 5230 5229 5226 5224 5223 5221 5220 5220 5220 5219 5220 5221 5222 5223 5223 5222 5223 5225 5227 5227 5227 5227 5229 5230 5231 5232 5232 5233 5235 5237 5238 5237 5239 5244 5247 5249 5253 5259 5267 5275 5281 5284 5284 5287 5293 5296 5297 5304 5311 5316 5321 5326 5329 5333 5338 5342
5230 5228 5225 5222 5220 5218 5216 5214 5213 5210 5207 5206 5205 5204 5203 5203 5203 5204 5206 5207 5208 5209 5208 5209 5210 5211 5212 5212 5211 5213 5214 5215 5217 5217 5219 5221 5221 5222 5222 5224 5228 5230 5232 5236 5240 5247 5257 5265 5269 5270 5272 5277 5278 5279 5288 5298 5301 5304 5310 5314 5319 5324 5327
5213 5211 5209 5207 5204 5202 5199 5198 5196 5193 5190 5188 5188 5186 5185 5186 5187 5188 5190 5191 5193 5194 5194 5193 5194 5195 5196 5196 5196 5196 5197 5199 5201 5201 5203 5206 5206 5205 5207 5209 5212 5214 5217 5221 5224 5229 5238 5246 5252 5257 5258 5260 5263 5267 5275 5282 5282 5285 5294 5300 5303 5308 5313
5196 5193 5191 5189 5187 5185 5183 5180 5177 5174 5172 5170 5168 5167 5166 5168 5170 5171 5173 5175 5176 5177 5178 5177 5177 5177 5178 5179 5179 5179 5180 5181 5184 5184 5186 5188 5189 5189 5191 5194 5197 5199 5201 5205 5208 5213 5219 5225 5234 5243 5244 5245 5251 5255 5258 5262 5263 5268 5279 5282 5283 5291 5299
5178 5175 5172 5170 5169 5168 5165 5163 5159 5155 5154 5153 5149 5147 5146 5149 5153 5154 5155 5157 5158 5159 5160 5160 5160 5160 5161 5161 5161 5161 5162 5163 5166 5168 5168 5170 5171 5173 5175 5178 5181 5184 5187 5189 5192 5197 5201 5206 5215 5227 5231 5232 5237 5239 5240 5244 5247 5252 5260 5264 5266 5275 5285
5160 5158 5154 5151 5150 5150 5148 5146 5141 5137 5136 5135 5132 5130 5128 5129 5133 5136 5138 5138 5138 5139 5141 5141 5142 5142 5142 5143 5143 5142 5143 5145 5147 5149 5149 5151 5153 5155 5158 5161 5164 5169 5172 5173 5175 5179 5184 5189 5198 5209 5215 5220 5223 5223 5224 5228 5231 5235 5242 5247 5250 5259 5270
5144 5140 5137 5133 5132 5132 5131 5129 5124 5121 5120 5118 5116 5115 5113 5111 5113 5116 5119 5119 5119 5120 5121 5122 5122 5122 5123 5123 5122 5122 5124 5125 5127 5128 5129 5131 5133 5136 5140 5143 5146 5150 5154 5157 5158 5161 5166 5174 5182 5190 5199 5206 5208 5206 5205 5210 5216 5220 5224 5229 5235 5245 5256
5128 5125 5121 5117 5114 5114 5115 5112 5108 5106 5105 5103 5102 5101 5098 5096 5096 5098 5099 5101 5102 5102 5103 5102 5101 5101 5103 5104 5103 5103 5104 5105 5106 5107 5108 5110 5113 5117 5121 5124 5127 5130 5135 5139 5141 5143 5150 5159 5165 5172 5183 5191 5189 5187 5189 5195 5201 5204 5207 5212 5221 5230 5235
5114 5111 5107 5103 5099 5099 5101 5098 5093 5091 5091 5089 5088 5086 5083 5082 5082 5083 5084 5086 5087 5086 5085 5084 5082 5082 5083 5085 5086 5086 5085 5085 5085 5086 5088 5091 5093 5097 5101 5104 5108 5112 5116 5120 5123 5126 5133 5141 5148 5156 5166 5171 5169 5169 5174 5179 5183 5186 5191 5197 5204 5211 5214
5101 5098 5095 5091 5087 5086 5088 5086 5080 5078 5078 5076 5074 5072 5070 5070 5070 5070 5072 5073 5072 5070 5068 5068 5067 5065 5065 5067 5070 5070 5068 5067 5066 5067 5071 5074 5076 5079 5081 5085 5090 5095 5097 5100 5103 5108 5115 5123 5131 5138 5144 5149 5150 5152 5156 5160 5163 5168 5175 5181 5187 5193 5199
5092 5088 5084 5081 5078 5075 5075 5075 5070 5067 5067 5065 5062 5060 5059 5059 5059 5059 5060 5059 5058 5056 5055 5055 5053 5051 5050 5053 5055 5055 5053 5051 5050 5052 5056 5059 5061 5062 5065 5070 5074 5076 5079 5082 5085 5090 5097 5105 5112 5118 5123 5128 5132 5135 5138 5139 5144 5154 5162 5167 5171 5179 5187
5084 5080 5075 5072 5069 5065 5064 5064 5062 5059 5058 5056 5053 5051 5050 5050 5049 5049 5048 5047 5046 5045 5044 5043 5042 5039 5038 5041 5043 5042 5041 5039 5038 5040 5044 5046 5048 5050 5053 5058 5060 5061 5064 5068 5070 5075 5081 5088 5095 5100 5105 5109 5114 5118 5120 5122 5130 5141 5147 5151 5158 5167 5174
5075 5073 5068 5063 5060 5056 5053 5055 5055 5052 5050 5048 5046 5043 5042 5040 5039 5039 5038 5037 5037 5037 5034 5033 5032 5030 5029 5031 5032 5032 5032 5031 5030 5032 5034 5036 5037 5041 5044 5047 5048 5050 5053 5056 5059 5063 5069 5074 5081 5086 5090 5094 5099 5103 5105 5109 5118 5127 5132 5138 5147 5154 5156
5067 5065 5061 5056 5052 5048 5046 5046 5047 5045 5042 5040 5039 5037 5034 5032 5031 5030 5030 5030 5029 5028 5026 5025 5024 5024 5023 5024 5025 5025 5025 5024 5024 5025 5026 5027 5030 5034 5036 5037 5038 5041 5045 5048 5051 5055 5059 5064 5069 5074 5078 5083 5089 5092 5095 5100 5108 5115 5120 5128 5134 5137 5140
5060 5058 5055 5049 5044 5042 5040 5038 5038 5037 5035 5033 5032 5029 5026 5025 5024 5022 5022 5023 5023 5021 5020 5019 5018 5018 5018 5018 5019 5019 5018 5018 5018 5019 5020 5021 5024 5027 5028 5029 5032 5035 5038 5041 5044 5047 5050 5055 5059 5064 5068 5074 5079 5083 5087 5093 5100 5107 5112 5117 5122 5125 5131
5054 5052 5049 5044 5038 5035 5034 5032 5030 5029 5028 5026 5025 5022 5020 5019 5018 5017 5016 5017 5017 5015 5014 5014 5014 5014 5013 5013 5013 5013 5013 5013 5013 5013 5015 5017 5019 5021 5022 5023 5026 5029 5031 5035 5038 5040 5044 5048 5052 5056 5061 5066 5071 5076 5080 5087 5094 5100 5104 5108 5113 5118 5125
5049 5047 5044 5040 5034 5030 5027 5026 5024 5022 5021 5020 5019 5017 5015 5014 5013 5012 5012 5011 5011 5010 5010 5010 5010 5010 5010 5009 5009 5009 5009 5009 5009 5010 5011 5014 5015 5016 5017 5019 5021 5024 5027 5030 5033 5036 5039 5043 5047 5051 5056 5060 5066 5070 5075 5081 5088 5093 5097 5102 5107 5113 5120
5045 5043 5039 5035 5031 5027 5023 5021 5018 5016 5015 5015 5014 5012 5011 5010 5009 5008 5008 5007 5007 5006 5006 5007 5007 5006 5006 5006 5006 5006 5007 5007 5007 5008 5010 5011 5012 5013 5014 5016 5019 5021 5024 5027 5029 5032 5036 5039 5043 5048 5052 5057 5062 5066 5071 5077 5082 5087 5092 5097 5102 5108 5115
5041 5039 5035 5030 5026 5024 5020 5017 5014 5012 5011 5010 5010 5008 5007 5006 5006 5006 5005 5005 5005 5004 5004 5004 5004 5004 5004 5004 5004 5005 5006 5006 5007 5008 5008 5009 5010 5011 5013 5015 5017 5020 5022 5025 5027 5030 5034 5037 5041 5045 5050 5054 5059 5063 5068 5072 5077 5082 5088 5093 5099 5104 5109
5038 5036 5032 5027 5022 5019 5016 5013 5011 5009 5008 5007 5007 5006 5004 5004 5003 5003 5003 5004 5003 5003 5002 5002 5002 5001 5002 5002 5003 5003 5004 5006 5007 5007 5008 5009 5010 5011 5013 5015 5017 5019 5022 5024 5027 5030 5033 5036 5040 5044 5048 5052 5056 5061 5065 5070 5075 5080 5085 5090 5096 5101 5106
5035 5033 5029 5024 5019 5015 5012 5010 5008 5007 5006 5005 5004 5003 5002 5002 5002 5002 5003 5003 5002 5001 5001 5000 5000 5000 5001 5002 5002 5002 5003 5004 5006 5007 5008 5009 5010 5012 5013 5015 5017 5019 5022 5024 5027 5030 5033 5036 5040 5043 5047 5051 5055 5059 5064 5069 5073 5078 5083 5088 5093 5098 5103
5033 5030 5027 5022 5017 5013 5010 5007 5005 5004 5004 5003 5003 5001 5001 5001 5002 5002 5002 5001 5000 5000 5000 4999 4999 4999 5000 5001 5001 5002 5002 5003 5005 5007 5008 5009 5011 5012 5014 5016 5018 5020 5022 5025 5028 5031 5033 5037 5040 5044 5047 5051 5055 5059 5063 5067 5072 5076 5081 5085 5090 5095 5101
5026 5025 5023 5019 5015 5012 5009 5006 5003 5002 5002 5001 5001 5000 5000 5000 5001 5001 5000 4999 4999 4998 4999 4999 4999 4999 4999 5000 5001 5001 5002 5003 5005 5007 5008 5009 5011 5012 5014 5016 5018 5021 5023 5025 5028 5030 5033 5036 5040 5043 5047 5050 5054 5058 5062 5067 5071 5075 5079 5083 5089 5094 5099
5019 5018 5017 5015 5012 5009 5007 5005 5003 5001 5001 5000 4999 4999 5000 5000 5000 5000 4998 4998 4997 4997 4998 4998 4998 4998 4999 4999 5000 5001 5002 5003 5005 5007 5008 5009 5010 5011 5013 5015 5018 5020 5023 5025 5028 5030 5033 5036 5040 5043 5046 5050 5053 5057 5061 5065 5069 5073 5077 5082 5087 5092 5097
5017 5014 5012 5011 5010 5007 5005 5003 5002 5001 5000 5000 4999 4999 4999 4999 4998 4997 4997 4996 4996 4997 4997 4997 4998 4998 4999 4999 5000 5001 5002 5003 5005 5006 5008 5009 5010 5011 5013 5015 5018 5020 5023 5025 5028 5030 5033 5036 5039 5042 5046 5049 5052 5056 5060 5064 5068 5072 5076 5081 5086 5090 5095
5017 5014 5010 5008 5006 5005 5003 5001 5001 5000 5000 4999 4999 4999 4999 4998 4997 4996 4996 4996 4996 4996 4997 4997 4998 4998 4999 4999 5000 5001 5002 5003 5005 5006 5008 5009 5010 5012 5014 5016 5018 5021 5023 5025 5028 5030 5033 5036 5039 5042 5045 5048 5052 5055 5059 5063 5067 5071 5075 5080 5084 5088 5092
5014 5012 5009 5006 5004 5002 5002 5000 4999 4999 4999 4998 4998 4997 4998 4997 4996 4995 4995 4995 4995 4996 4996 4997 4997 4998 4999 4999 5000 5001 5002 5003 5005 5006 5008 5009 5011 5013 5014 5017 5019 5021 5023 5026 5028 5030 5033 5036 5039 5041 5045 5048 5051 5055 5058 5062 5065 5070 5073 5077 5081 5085 5089
5011 5009 5008 5006 5003 5001 5000 4999 4998 4997 4997 4997 4997 4996 4996 4996 4996 4995 4994 4995 4995 4995 4996 4997 4997 4998 4998 4999 5000 5001 5002 5003 5005 5006 5008 5009 5011 5013 5015 5017 5019 5021 5023 5026 5028 5031 5033 5036 5039 5042 5044 5047 5051 5054 5057 5061 5064 5068 5071 5075 5079 5083 5087
5012 5009 5007 5006 5003 5000 4999 4998 4997 4996 4996 4996 4996 4995 4995 4995 4995 4995 4994 4994 4995 4995 4996 4997 4998 4998 4999 4999 5000 5001 5002 5004 5005 5006 5008 5009 5011 5013 5015 5017 5019 5021 5024 5026 5029 5031 5034 5037 5039 5042 5044 5047 5050 5054 5057 5060 5064 5067 5070 5074 5078 5082 5086
5013 5008 5005 5003 5002 5000 4998 4997 4996 4996 4995 4995 4995 4994 4994 4994 4995 4995 4994 4994 4995 4995 4995 4996 4997 4998 4999 4999 5000 5001 5003 5004 5005 5006 5008 5010 5011 5013 5015 5017 5019 5021 5024 5026 5029 5032 5034 5037 5039 5042 5045 5047 5050 5054 5057 5060 5063 5066 5070 5073 5077 5081 5085
Wind_Speed
75 75 75 75 75 76 76 77 77 78 78 79 79 80 81 82 83 83 84 84 85 86 87 87 87 88 88 89 90 90 90 90 90 91 92 93 94 95 96 97 98 99 96 93 95 94 93 93 93 93 92 92 93 93 93 94 94 94 95 95 95 95 94
74 74 73 73 73 73 73 74 74 74 75 75 76 76 77 78 79 80 81 82 83 84 85 86 86 87 87 89 90 90 90 91 92 92 92 93 94 95 96 97 99 100 99 97 97 97 96 96 97 95 94 93 93 94 94 95 95 95 95 96 96 96 96
76 75 75 74 74 74 74 74 74 74 74 74 74 74 75 76 77 77 78 79 80 81 83 84 84 85 86 88 89 89 90 92 92 93 94 94 94 95 96 97 99 101 101 99 99 99 98 98 99 98 97 96 95 94 95 96 96 96 96 96 97 97 97
77 77 77 77 77 76 76 76 76 76 76 76 76 76 75 75 76 76 76 77 77 79 80 81 81 82 84 86 87 88 89 91 92 94 95 96 96 96 97 97 99 100 101 101 100 100 100 101 102 101 99 99 98 97 96 97 97 97 98 97 97 97 97
80 79 79 79 79 79 79 79 79 79 79 79 79 79 78 78 78 77 78 77 77 78 79 79 79 79 81 83 84 85 87 89 91 93 95 96 97 97 98 98 99 100 101 102 101 101 101 101 103 103 102 101 100 99 98 98 97 98 98 98 98 97 97
82 82 82 82 82 82 82 81 82 81 82 82 82 82 81 81 81 80 80 80 79 80 80 80 80 79 80 82 82 83 84 86 88 90 92 94 95 97 99 100 100 101 101 102 102 101 101 101 102 103 103 103 102 101 100 99 98 98 99 99 99 98 97
85 85 85 85 85 85 84 84 84 84 85 85 85 85 84 84 84 83 83 82 82 82 82 82 82 81 82 83 83 84 84 85 86 87 89 90 92 94 97 99 100 100 101 102 103 103 102 101 101 103 104 104 104 104 102 101 100 99 99 99 99 99 98
87 87 87 87 87 87 87 87 87 87 87 87 87 87 87 87 87 86 85 85 84 84 84 84 84 84 84 85 85 86 86 86 87 88 88 89 90 92 94 95 97 98 100 101 102 103 102 101 101 102 103 104 105 106 105 102 102 101 100 100 99 98 98
90 90 90 90 90 89 89 89 89 90 90 90 90 90 90 90 89 89 88 87 87 86 86 87 87 87 87 88 88 89 89 89 90 90 91 90 91 93 93 94 95 96 97 98 99 101 101 101 100 100 102 103 104 105 104 103 103 103 102 101 100 99 99
92 92 92 92 92 92 92 92 92 93 93 93 94 94 94 93 92 92 91 90 89 89 89 90 90 90 90 91 92 92 93 93 93 94 94 94 95 95 96 96 96 96 97 97 97 97 98 98 97 96 98 99 100 101 102 102 103 103 101 101 101 100 98
90 90 90 91 91 91 91 91 92 93 93 94 95 96 97 96 95 95 94 93 93 93 93 93 93 94 94 94 95 95 96 96 96 96 97 98 98 98 99 99 99 99 99 99 99 98 98 98 96 93 93 94 95 96 98 99 100 100 99 99 100 98 96
86 86 87 87 87 87 87 87 88 89 90 90 91 93 95 96 96 95 95 95 96 95 95 96 96 96 97 97 98 99 99 99 99 99 100 101 101 102 102 102 101 101 101 102 102 102 101 101 98 95 93 92 93 95 96 96 97 97 96 96 96 94 92
81 82 82 83 83 82 82 82 83 84 84 85 86 87 89 91 92 93 93 93 94 95 95 95 95 96 97 98 99 100 100 100 101 102 102 103 104 104 104 104 104 104 104 104 105 105 104 103 101 99 96 94 94 97 99 99 98 97 97 96 95 92 90
76 76 76 77 77 77 75 75 77 78 78 80 80 81 83 84 86 86 87 87 87 88 88 89 90 91 92 93 95 96 98 99 99 101 102 103 104 105 105 105 106 106 106 106 106 107 106 105 104 102 99 97 99 101 102 101 100 100 100 99 97 94 94
70 69 68 68 69 69 67 67 69 71 72 73 74 75 77 78 79 79 79 79 79 79 79 80 81 82 83 84 85 86 88 89 91 94 96 97 99 101 102 104 105 105 106 106 107 107 107 106 105 103 101 100 102 104 104 104 104 103 103 102 100 99 100
61 60 59 59 60 61 59 59 62 64 65 66 67 69 70 71 71 72 71 70 70 70 71 72 73 74 75 75 74 75 77 79 82 84 85 86 88 91 93 95 96 98 99 101 103 105 106 105 105 104 103 103 103 104 105 105 105 105 105 104 103 103 102
52 52 52 52 52 54 53 53 55 57 57 58 60 62 63 63 63 63 62 61 61 62 63 63 64 66 67 67 66 66 68 70 73 75 75 76 77 79 81 82 83 85 87 90 93 96 97 99 99 100 100 101 101 103 104 105 106 105 105 104 104 103 102
46 45 46 47 48 49 49 48 48 49 50 51 53 54 55 55 55 54 53 53 54 54 54 55 56 57 59 58 57 57 59 61 63 64 64 64 65 67 69 69 70 72 74 76 79 82 84 86 88 89 90 92 94 96 99 102 103 103 103 103 102 101 100
43 42 42 44 44 45 45 44 42 43 44 45 45 47 47 47 47 47 46 46 45 44 45 46 47 48 49 48 47 48 49 51 52 53 53 54 55 56 56 57 59 61 63 65 68 69 71 73 74 76 78 81 83 86 90 93 94 95 96 96 96 95 94
42 39 38 39 40 41 42 41 38 38 40 40 39 40 41 42 42 41 39 38 36 35 36 39 39 40 40 40 40 40 41 43 44 44 44 46 46 46 46 49 51 53 54 56 58 60 61 62 63 64 66 67 68 71 76 78 80 81 81 81 82 83 82
40 37 35 36 38 39 39 38 37 36 36 36 35 36 37 36 35 34 32 29 27 28 30 32 32 32 33 33 32 33 35 36 37 38 39 39 39 38 40 43 44 46 47 49 50 52 53 53 54 55 56 56 57 59 61 62 62 63 63 64 65 67 66
37 34 32 34 37 38 38 37 36 35 34 33 32 32 31 30 29 27 25 22 20 21 24 25 25 25 26 26 26 27 29 30 32 33 33 33 32 33 35 37 38 40 41 42 43 44 44 44 45 45 46 47 48 49 50 48 47 47 49 51 53 54 53
34 32 31 32 35 37 37 37 36 35 33 31 29 27 25 24 22 21 19 17 16 16 18 20 20 20 20 21 21 22 24 26 27 28 27 26 27 28 30 32 33 34 34 35 36 36 36 36 37 37 38 39 40 41 41 39 39 41 43 45 46 47 46
32 30 30 31 34 35 36 36 36 35 32 28 24 22 20 18 16 15 15 15 13 14 15 16 15 15 16 16 16 18 20 21 22 21 21 21 23 24 25 26 26 27 28 28 29 30 30 30 31 32 33 35 36 37 38 37 38 41 42 43 43 43 43
31 29 28 31 33 33 34 34 34 32 29 25 21 18 16 13 12 14 15 14 12 13 13 12 12 12 13 13 12 13 15 16 16 15 16 17 18 19 19 19 20 22 23 24 24 25 26 27 28 29 31 32 34 36 37 38 39 40 41 41 41 41 42
29 27 26 30 34 33 32 31 30 28 25 21 18 15 12 11 13 15 15 13 12 12 11 10 10 10 10 10 9 9 11 12 12 11 12 13 14 14 15 16 18 19 20 21 23 24 25 26 27 28 30 31 33 35 36 37 38 38 39 39 40 40 41
28 25 24 28 31 31 30 29 27 24 21 18 15 11 9 10 14 16 15 13 12 10 8 8 8 8 8 8 7 7 8 10 11 11 12 13 13 13 15 17 18 19 20 21 22 23 24 25 26 27 29 31 32 33 34 35 35 36 37 38 38 39 39
26 23 22 25 26 26 26 27 25 21 18 16 12 9 8 11 15 16 14 11 8 6 6 6 6 6 6 5 5 6 7 9 11 12 12 12 12 14 15 17 17 18 19 20 21 22 23 24 25 26 28 29 30 31 32 33 33 34 36 36 37 37 38
30 25 23 23 22 20 20 21 22 20 17 14 10 8 9 14 17 14 9 6 4 3 4 4 4 4 3 3 3 5 6 8 10 11 11 12 13 14 14 15 16 17 18 19 20 21 22 23 24 25 26 27 28 29 30 30 32 33 34 35 36 36 37
35 32 27 24 21 18 16 14 16 17 16 13 10 9 11 16 15 9 4 3 1 1 2 4 4 4 3 3 3 4 5 6 8 10 12 14 15 16 16 16 17 17 18 19 20 21 22 22 23 24 25 26 27 27 28 29 31 32 33 34 35 35 36
37 35 32 27 22 17 15 12 11 12 12 10 8 9 11 12 9 4 2 2 1 2 3 4 4 4 4 4 5 5 5 6 7 9 12 15 16 17 18 18 18 18 19 20 20 21 21 22 22 23 24 25 26 27 28 29 31 32 32 33 33 34 34
35 34 33 31 25 18 14 12 10 8 9 8 6 7 9 8 6 4 3 3 3 3 4 4 4 4 5 5 6 6 7 8 9 11 13 15 16 16 17 17 18 18 19 19 20 20 20 21 22 22 23 24 25 26 27 29 30 30 30 31 32 33 33
36 34 32 31 28 21 14 11 10 9 7 6 4 5 7 6 4 5 5 4 4 5 5 5 6 6 6 6 6 7 8 9 10 12 13 15 15 15 16 16 17 17 18 19 20 20 21 21 21 21 22 23 24 25 27 28 28 29 30 31 32 33 33
36 35 32 29 27 23 17 12 10 9 8 5 4 4 5 5 4 5 6 5 6 6 6 6 7 8 8 7 7 7 7 9 10 12 14 15 15 16 16 16 17 18 18 19 20 20 20 20 20 21 21 22 23 24 25 26 27 29 31 31 32 33 34
31 33 32 27 23 20 18 14 10 8 8 6 5 4 4 5 5 5 6 6 6 7 7 6 7 8 9 9 8 7 8 9 10 12 13 15 16 17 17 17 19 19 20 19 19 19 19 19 20 21 22 22 22 22 22 23 25 27 29 31 32 34 35
27 30 31 29 22 16 15 14 11 8 7 7 6 4 4 5 5 5 6 6 6 6 7 6 6 7 9 10 9 9 9 10 11 12 13 15 17 18 18 19 20 21 21 20 19 18 18 18 19 20 22 22 22 22 23 23 25 26 28 30 32 34 35
Wind_Direction
281 280 279 279 278 277 276 275 274 273 272 271 271 270 269 268 267 266 265 265 264 264 263 262 262 261 260 260 260 259 259 259 258 258 257 256 255 254 254 254 253 253 251 249 249 248 247 247 247 246 246 247 247 248 249 250 250 250 251 251 251 251 251
283 282 281 280 279 278 277 276 275 274 273 272 271 270 269 268 267 266 265 265 264 263 263 262 261 261 260 260 259 259 258 258 258 257 257 256 255 254 253 253 253 253 251 249 249 249 248 248 248 248 247 248 248 249 249 250 250 251 251 252 252 252 252
284 283 282 282 281 280 279 278 277 276 275 274 273 271 270 269 268 267 266 266 265 264 263 262 261 261 260 260 259 258 258 258 257 257 257 256 255 255 254 253 253 252 251 250 249 249 248 248 248 248 248 248 248 249 249 250 251 251 251 252 252 253 253
284 283 282 282 281 280 280 279 278 278 277 276 274 273 272 271 270 269 268 267 266 265 264 263 262 261 261 260 259 258 258 258 257 257 257 256 256 255 255 254 253 253 252 251 249 249 249 249 248 248 248 248 248 248 249 250 250 251 252 252 252 253 253
283 283 282 281 280 280 279 279 278 278 277 276 275 274 273 272 271 270 269 268 267 266 265 264 263 262 261 261 260 259 258 258 257 257 257 256 256 256 256 255 254 254 253 252 250 249 249 250 250 249 249 249 249 249 249 249 250 251 251 252 252 253 253
282 282 281 280 280 279 278 278 277 277 276 275 274 274 273 272 271 270 269 269 268 267 266 265 264 263 262 262 261 260 259 258 258 258 257 257 256 256 256 256 255 255 254 253 252 250 249 250 250 251 250 250 250 250 250 250 250 250 251 252 252 253 253
282 281 280 280 279 278 278 277 276 276 275 274 273 273 272 271 270 269 269 268 268 267 267 266 265 264 263 263 262 261 260 259 259 258 258 258 257 257 257 256 256 255 255 255 254 252 251 250 251 251 251 251 251 251 251 251 251 251 251 251 252 253 253
282 281 280 279 279 278 277 276 276 275 274 273 273 272 271 270 269 269 268 267 267 266 266 266 265 264 264 263 262 262 261 260 259 259 258 258 258 257 257 257 256 255 255 255 254 254 252 251 251 251 252 252 252 252 252 252 252 252 251 251 252 252 253
281 280 280 279 278 278 277 276 276 275 274 273 272 272 271 270 269 269 268 267 267 266 266 266 265 264 263 263 262 261 261 260 259 259 258 258 257 257 257 257 256 256 255 255 255 254 253 252 251 251 252 252 252 253 253 252 252 252 252 252 252 252 252
282 281 280 279 278 277 277 276 276 275 274 274 273 272 271 270 270 269 269 268 267 267 266 266 265 264 264 263 262 262 261 260 259 259 258 257 257 256 256 256 256 256 256 256 255 255 254 253 251 250 251 252 252 252 252 252 252 252 251 251 251 251 251
283 282 281 280 279 278 277 277 276 275 275 274 274 273 272 271 270 270 269 269 268 267 266 266 265 265 264 264 263 262 261 261 260 259 259 258 257 256 256 256 255 255 256 256 256 255 255 254 253 251 250 251 251 252 252 252 252 251 251 250 250 250 250
285 283 282 281 280 279 278 277 277 276 275 275 274 274 274 273 272 271 270 270 269 268 267 266 266 265 265 264 263 263 262 261 261 260 259 258 258 257 256 256 255 255 255 255 255 255 255 254 254 252 251 251 251 252 252 251 251 251 251 250 250 249 249
287 285 284 282 281 280 279 278 277 277 276 276 275 275 275 274 273 272 271 270 270 269 269 268 267 266 265 265 264 263 263 262 261 260 259 258 258 257 256 256 255 255 254 254 254 254 254 254 254 253 252 251 251 252 252 251 251 251 251 250 250 250 249
289 287 286 284 282 281 280 279 278 277 277 276 276 276 275 275 274 274 273 272 272 271 271 270 269 268 266 265 265 264 263 262 261 260 260 259 258 257 256 256 255 254 254 253 253 253 253 253 253 253 252 251 251 251 251 251 251 251 251 251 251 250 249
291 289 287 286 284 283 282 281 279 278 277 277 276 276 275 275 275 275 274 274 274 273 272 271 270 269 267 266 265 265 264 263 262 260 259 258 258 257 256 255 255 254 254 253 253 253 253 252 252 252 251 251 250 250 250 250 250 250 250 250 250 250 249
294 292 290 288 287 285 283 282 281 279 278 278 277 276 276 276 276 276 276 276 275 274 273 272 271 270 269 267 266 265 264 263 261 260 259 258 257 257 256 255 254 254 253 253 252 252 251 251 251 251 250 249 249 249 249 249 249 249 249 249 250 249 250
298 296 294 292 290 288 285 283 282 281 280 280 279 279 278 278 278 278 278 277 275 274 273 272 271 270 269 268 267 265 264 263 262 260 259 258 257 256 255 254 253 253 252 251 251 251 250 250 249 249 249 248 248 248 248 248 248 248 248 249 249 249 249
302 301 299 296 293 290 287 285 284 284 283 282 281 281 281 281 280 279 278 276 275 274 273 272 271 270 269 268 267 265 263 262 262 261 260 258 256 255 254 253 252 251 250 249 249 249 249 248 248 247 247 246 246 246 246 247 247 248 248 248 248 249 249
307 305 302 299 296 293 290 289 288 286 284 283 283 283 283 282 281 279 277 276 276 274 273 271 270 270 270 269 267 265 264 263 263 262 261 259 257 255 254 252 250 249 248 247 247 247 247 247 246 245 245 245 244 244 245 246 246 247 247 247 247 247 246
311 309 306 302 299 296 294 293 291 289 288 287 287 287 286 284 282 280 279 278 276 273 271 270 270 270 270 270 269 267 265 264 263 262 261 259 258 256 253 250 248 247 246 246 246 246 246 245 244 243 243 243 242 243 244 244 245 245 245 244 244 243 242
314 313 311 306 302 299 297 297 296 294 293 292 292 291 289 286 284 283 281 278 275 271 270 269 269 270 270 270 270 268 265 264 263 261 260 258 257 253 250 247 246 245 245 244 244 244 244 243 242 240 239 238 237 238 239 241 241 241 240 239 237 236 236
318 317 315 310 305 302 301 301 301 299 298 297 296 294 290 287 286 284 283 279 274 271 270 270 270 270 269 268 266 265 264 262 260 259 258 257 254 250 247 245 243 242 241 241 240 239 239 238 236 235 234 232 231 231 231 232 232 230 229 228 227 226 224
321 320 317 311 307 305 305 306 305 303 302 301 299 294 289 285 283 284 284 282 278 275 272 271 271 269 266 264 263 264 263 261 260 259 257 253 249 245 242 240 238 237 236 235 234 233 232 230 229 227 225 224 222 220 219 217 215 215 216 216 217 217 216
323 322 319 313 308 307 307 307 305 304 304 303 300 295 288 284 286 292 292 287 283 278 272 268 266 263 261 261 261 263 266 266 265 262 255 247 240 238 236 235 232 230 228 226 225 223 222 221 219 217 214 211 209 208 207 205 205 207 209 211 212 212 212
326 326 322 314 309 308 308 305 304 305 305 304 301 295 290 294 303 302 295 290 285 277 268 263 259 255 255 255 256 262 268 271 268 260 248 238 233 231 229 224 221 220 217 214 212 210 209 208 206 204 202 201 200 200 201 201 203 205 206 208 209 209 209
329 329 325 316 312 311 309 305 305 305 304 303 301 296 300 314 312 302 296 291 282 270 261 256 253 252 251 248 248 255 262 265 262 250 233 225 221 219 214 210 208 207 205 202 200 199 199 198 197 196 196 196 198 199 200 201 203 204 205 205 206 206 207
331 332 329 320 315 313 310 306 305 305 304 303 300 299 311 316 304 295 291 285 274 263 257 254 251 252 253 248 240 239 244 246 245 234 220 213 210 207 204 203 202 199 197 196 196 195 195 196 196 195 196 197 198 199 200 201 202 202 203 203 203 203 203
335 337 335 326 317 312 308 306 304 304 305 303 300 304 310 299 287 281 276 269 264 264 264 257 250 250 255 251 238 228 226 228 228 223 212 205 202 202 202 203 201 198 196 196 196 196 196 197 197 196 196 197 198 198 198 198 199 199 200 201 201 200 201
339 343 342 335 323 313 306 302 300 303 306 306 309 315 294 273 268 265 258 251 257 268 264 257 250 244 241 238 228 223 222 222 221 214 203 194 192 195 198 201 201 198 196 196 196 196 195 194 194 194 194 195 196 196 195 195 196 198 199 200 199 199 200
339 342 344 343 334 321 309 298 291 294 301 306 311 304 272 252 246 244 234 222 232 247 241 240 237 229 212 193 187 195 206 214 214 206 195 189 187 188 190 191 192 189 188 189 190 189 189 188 189 190 190 192 193 194 194 195 197 198 199 199 198 198 201
338 339 341 344 341 329 317 305 287 279 282 285 284 275 257 241 227 209 175 163 175 211 221 219 219 216 207 192 182 179 181 188 193 190 188 187 187 186 185 183 180 179 181 184 185 185 185 186 187 189 190 192 193 193 193 194 196 197 197 197 198 201 204
337 338 340 340 340 335 322 312 301 281 266 258 253 257 254 239 208 165 147 154 174 197 202 190 180 184 185 184 184 183 181 183 185 183 184 187 187 184 183 180 177 177 180 183 184 184 184 184 186 188 189 190 191 192 193 195 196 197 198 200 202 204 205
336 339 340 339 336 334 328 315 306 297 277 255 241 253 258 243 196 156 149 162 182 191 185 168 158 158 161 164 170 177 181 186 189 189 189 190 188 187 187 184 180 180 182 183 181 180 180 182 184 186 188 189 191 194 197 198 199 199 201 202 203 203 201
332 335 339 340 334 329 328 321 308 299 290 274 251 244 249 240 200 163 156 171 187 184 173 164 157 154 153 156 159 167 177 183 188 192 194 194 192 192 190 184 180 180 180 179 178 178 178 179 181 181 182 185 187 191 195 197 198 199 199 199 198 197 194
331 331 335 340 336 325 321 321 312 296 285 272 253 234 231 228 210 181 169 179 191 182 169 167 165 157 154 156 158 163 172 178 182 188 191 190 191 191 188 181 177 177 177 175 175 175 176 176 176 178 179 180 184 187 190 192 194 195 194 193 192 190 189
336 333 334 340 341 329 317 313 309 298 285 269 253 237 223 216 213 201 185 183 191 185 171 170 174 166 160 160 162 164 169 173 176 180 182 184 186 187 184 179 176 175 175 174 173 175 177 178 179 181 182 183 186 188 191 192 193 193 192 190 189 188 188